Temp
81 81 77 80 80 78 77 74 74 79 80 78 73 75 76 80 81 81 84 84 84 83 87 86 84 84 84 83 82 83 82 81 79 79 81 76 81 81 79 82 82 81 82 81
79 76 81 83 80 78 76 75 77 78 79 79 74 74 76 79 81 82 83 83 84 85 83 86 84 84 83 83 82 81 81 80 81 82 79 81 75 71 73 74 79 79 82 82
76 79 81 81 79 77 77 76 76 75 77 77 76 74 74 79 79 81 83 85 86 85 85 87 86 84 84 81 82 82 80 78 79 80 77 77 75 72 71 71 70 74 82 82
78 81 80 79 78 79 75 81 79 76 74 71 76 68 72 76 77 78 81 83 86 87 86 88 89 88 86 84 83 82 80 80 81 80 80 76 73 69 70 70 73 78 78 79
76 77 78 77 79 81 78 80 77 75 75 73 71 70 77 71 74 78 81 85 86 89 89 88 87 87 87 85 83 81 80 80 79 80 79 77 73 72 74 75 75 76 78 78
80 83 83 83 83 83 83 79 76 74 76 68 68 69 74 75 76 79 82 85 86 88 88 87 87 85 84 84 83 81 79 79 79 79 80 77 76 76 76 77 77 79 77 80
76 79 83 84 80 80 80 78 70 67 67 66 69 68 76 79 80 81 82 84 86 86 86 86 86 84 82 81 82 81 80 78 80 80 80 78 77 77 77 78 79 75 77 78
69 67 80 84 83 81 78 80 72 59 63 69 67 67 78 78 81 81 83 84 85 85 85 85 85 83 81 81 81 81 80 79 80 80 78 77 78 80 80 78 79 80 78 77
69 70 80 82 84 83 74 75 79 69 65 68 71 72 79 79 78 80 81 81 83 85 84 85 86 85 83 82 82 82 81 81 80 80 78 78 78 78 79 77 78 80 79 79
75 70 78 81 84 80 81 79 73 72 61 59 68 65 72 74 77 80 81 81 84 84 82 83 83 83 84 85 84 84 83 81 81 80 80 80 79 78 78 78 77 78 78 78
79 75 74 76 78 78 75 76 70 75 70 67 63 70 79 77 79 80 83 83 84 83 82 81 81 80 82 83 84 83 83 81 81 80 79 79 80 80 79 79 79 79 79 79
81 77 72 76 79 80 81 77 78 73 64 67 67 72 82 79 79 82 84 82 84 83 81 80 81 79 78 76 79 81 81 82 82 81 80 80 80 80 81 80 81 81 80 80
78 74 69 73 78 77 77 75 76 75 75 65 68 74 78 79 78 81 81 80 78 78 77 77 76 75 76 74 73 74 77 80 82 81 82 80 80 80 82 81 80 80 79 79
80 76 74 71 74 77 74 74 75 80 73 70 73 76 80 77 76 77 76 79 79 77 75 75 76 76 77 75 74 73 73 76 78 80 81 80 81 81 81 81 80 81 80 79
85 74 72 71 72 74 76 77 74 75 75 74 75 74 81 76 77 78 77 77 75 74 74 77 77 70 77 76 76 75 73 74 76 78 79 80 80 80 79 79 78 79 79 79
76 70 72 70 72 74 73 76 77 76 74 74 75 76 81 76 78 75 75 74 74 72 75 78 77 76 73 76 76 75 76 77 78 78 79 79 79 79 78 78 78 78 78 78
76 72 71 69 69 73 70 76 76 76 77 78 74 81 81 78 76 76 74 76 75 73 77 76 79 78 78 77 77 77 78 77 75 75 77 78 77 75 78 78 77 77 77 77
70 71 70 67 69 60 76 76 78 78 78 81 80 81 80 78 77 79 79 77 76 76 77 76 76 77 79 79 79 78 78 77 76 76 77 78 77 72 76 77 77 76 76 75
76 71 64 65 66 67 72 74 75 75 78 82 81 81 78 75 76 74 79 80 77 79 75 74 78 79 78 78 79 79 77 78 77 77 78 76 74 76 76 76 75 75 75 75
74 74 75 63 64 62 76 77 81 81 71 84 81 80 76 76 75 70 74 76 72 73 71 74 78 79 80 79 80 76 77 77 76 76 76 76 75 74 74 73 73 74 74 74
70 68 68 66 68 72 76 78 80 68 74 80 80 77 76 74 71 69 71 70 70 69 69 72 73 76 75 77 78 76 75 71 73 75 73 72 72 72 71 71 71 71 71 71
68 69 68 62 63 63 76 75 73 76 78 80 77 75 71 70 71 71 69 66 63 62 67 69 70 68 73 76 74 70 67 69 70 70 70 69 69 70 71 68 68 68 68 68
66 69 70 68 72 72 76 74 77 77 76 78 76 75 75 73 72 72 70 67 65 63 67 70 69 67 68 68 69 65 64 66 67 67 66 66 66 66 67 65 65 67 67 68
64 65 69 67 72 73 77 78 78 80 81 80 79 77 77 74 74 75 71 67 65 68 67 68 68 67 64 64 64 63 64 64 65 64 64 65 64 62 65 67 67 66 66 66
68 66 66 68 72 74 77 78 81 81 82 79 77 78 79 78 77 74 71 71 69 68 69 69 67 64 63 64 63 64 63 63 63 63 63 63 64 63 63 64 64 63 64 61
68 68 70 72 75 74 76 79 80 80 81 78 75 75 77 78 75 74 72 71 69 67 67 66 65 64 63 63 62 61 62 61 61 62 63 61 62 63 63 63 63 57 53 51
MSLP
1007.66 1007.31 1007.07 1007.29 1007.48 1007.64 1007.68 1007.51 1007.26 1006.92 1007.11 1007.18 1007.51 1007.62 1007.96 1008.04 1008.22 1008.33 1008.46 1008.86 1009.12 1009.54 1010.03 1010.68 1011.30 1011.86 1012.29 1012.78 1013.26 1013.77 1014.50 1015.11 1015.53 1015.87 1015.91 1016.37 1016.28 1016.67 1016.95 1016.70 1016.41 1016.18 1016.24 1016.35
1007.64 1006.98 1007.23 1007.35 1007.54 1007.60 1007.60 1007.41 1007.02 1007.13 1007.27 1007.29 1007.60 1007.76 1008.04 1007.91 1007.79 1008.02 1008.31 1008.46 1008.68 1009.04 1009.86 1010.26 1010.96 1011.56 1012.11 1012.62 1013.21 1013.86 1014.30 1014.68 1015.03 1015.38 1015.72 1015.80 1016.40 1016.52 1016.49 1016.63 1016.19 1016.06 1015.80 1015.73
1007.02 1007.06 1007.31 1007.14 1007.21 1007.20 1007.28 1007.17 1007.01 1007.27 1007.38 1007.55 1007.59 1007.54 1007.72 1007.69 1007.92 1008.07 1008.24 1008.23 1008.32 1008.56 1008.95 1009.43 1010.19 1010.95 1011.68 1012.12 1012.68 1013.41 1013.86 1014.34 1014.69 1015.00 1015.37 1015.83 1016.08 1015.92 1016.06 1015.94 1015.87 1015.13 1015.37 1015.08
1007.06 1007.06 1006.93 1006.80 1006.79 1006.85 1006.60 1006.73 1007.07 1007.09 1007.13 1007.33 1007.77 1007.23 1007.20 1007.37 1007.38 1007.66 1007.72 1007.84 1007.93 1008.12 1008.61 1008.79 1009.15 1009.98 1010.83 1011.57 1012.29 1012.93 1013.42 1013.80 1014.17 1014.64 1014.78 1015.03 1015.23 1015.71 1015.59 1015.87 1015.66 1015.18 1014.96 1014.58
1006.64 1006.57 1006.34 1006.22 1006.29 1006.52 1006.43 1006.83 1006.98 1006.95 1007.11 1007.37 1007.76 1007.74 1006.57 1007.19 1006.89 1006.83 1007.28 1007.40 1007.60 1007.77 1008.06 1008.52 1009.01 1009.42 1010.07 1011.04 1011.96 1012.78 1013.19 1013.57 1014.12 1014.37 1014.52 1014.67 1014.77 1015.12 1015.52 1015.39 1015.13 1014.98 1014.75 1014.40
1006.36 1006.50 1006.21 1005.77 1006.01 1006.25 1006.44 1006.61 1006.87 1007.21 1007.04 1007.13 1007.68 1007.68 1006.17 1006.29 1006.06 1006.36 1007.06 1007.21 1007.48 1007.73 1008.14 1008.42 1008.98 1009.50 1010.17 1011.03 1011.84 1012.60 1013.16 1013.57 1013.97 1014.21 1014.26 1014.40 1014.73 1015.03 1015.31 1015.32 1015.11 1014.74 1014.70 1014.15
1006.13 1005.81 1005.74 1005.69 1005.82 1006.21 1006.09 1005.99 1005.97 1006.33 1006.56 1006.91 1007.83 1007.55 1005.85 1005.77 1006.07 1006.26 1006.43 1007.06 1007.50 1007.85 1008.21 1008.77 1009.28 1009.62 1010.32 1010.96 1011.54 1012.19 1012.78 1013.15 1013.49 1013.80 1014.13 1014.49 1014.66 1014.91 1015.01 1015.01 1014.81 1014.66 1014.41 1014.21
1005.63 1005.52 1005.28 1005.17 1005.04 1004.99 1005.59 1005.29 1005.32 1005.73 1006.29 1006.60 1007.73 1006.64 1005.54 1006.03 1006.16 1006.54 1006.79 1007.15 1007.52 1007.91 1008.59 1009.14 1009.38 1009.57 1010.16 1010.98 1011.55 1011.90 1012.48 1012.96 1013.30 1013.88 1014.40 1014.74 1014.94 1015.08 1015.03 1015.02 1014.76 1014.47 1014.32 1014.18
1005.36 1005.13 1004.83 1004.80 1004.70 1005.25 1005.61 1005.61 1005.80 1006.04 1007.21 1006.71 1006.47 1006.15 1005.45 1005.76 1006.24 1006.52 1006.87 1007.34 1007.38 1007.98 1008.91 1009.21 1009.44 1009.96 1010.49 1010.96 1011.39 1011.66 1012.26 1012.81 1013.40 1013.93 1014.41 1014.70 1014.86 1014.98 1014.98 1015.01 1014.80 1014.45 1014.29 1013.91
1005.21 1004.95 1004.64 1004.60 1004.86 1005.38 1005.11 1005.87 1005.95 1005.92 1006.07 1005.97 1005.75 1005.82 1005.12 1005.28 1005.64 1006.18 1006.62 1006.83 1007.47 1008.27 1009.52 1010.08 1010.17 1010.44 1010.95 1011.77 1012.09 1012.04 1012.54 1012.90 1013.35 1013.97 1014.46 1014.70 1014.86 1014.87 1014.93 1014.90 1014.64 1014.40 1014.24 1013.94
1005.04 1004.75 1004.80 1004.88 1004.49 1004.38 1005.45 1005.44 1005.91 1005.71 1006.01 1005.43 1005.26 1004.66 1004.92 1005.00 1005.13 1005.48 1006.10 1006.64 1007.55 1008.64 1009.58 1010.17 1010.58 1010.98 1011.31 1011.92 1012.42 1012.61 1012.77 1013.09 1013.62 1013.95 1014.31 1014.57 1014.50 1014.58 1014.72 1014.60 1014.46 1014.28 1014.03 1013.74
1004.75 1004.58 1004.27 1004.23 1004.46 1004.82 1004.67 1004.72 1004.99 1004.61 1005.76 1006.04 1005.61 1004.65 1004.71 1005.01 1005.32 1005.65 1006.07 1007.35 1007.98 1008.79 1009.85 1010.65 1010.95 1011.26 1011.66 1012.19 1012.54 1012.84 1013.01 1013.21 1013.21 1013.73 1013.99 1014.27 1014.48 1014.52 1014.40 1014.27 1014.05 1013.83 1013.58 1013.32
1004.48 1004.48 1004.00 1003.96 1004.50 1004.96 1004.41 1004.68 1004.75 1004.81 1004.90 1005.12 1004.87 1004.29 1004.83 1005.28 1005.49 1006.01 1006.64 1007.59 1008.48 1009.32 1010.22 1010.94 1011.06 1011.26 1011.35 1011.74 1012.04 1012.44 1012.91 1013.02 1013.31 1013.65 1013.64 1013.87 1014.08 1014.12 1013.94 1013.92 1013.83 1013.59 1013.36 1013.16
1003.52 1004.01 1003.70 1003.76 1003.94 1004.05 1004.11 1004.21 1004.43 1004.02 1004.04 1004.51 1004.27 1003.99 1004.57 1005.52 1005.88 1006.33 1006.97 1007.52 1008.30 1009.26 1010.20 1010.62 1010.74 1010.82 1010.79 1011.23 1011.47 1011.00 1011.73 1012.69 1013.33 1013.78 1013.69 1013.61 1013.55 1013.67 1013.73 1013.56 1013.38 1013.27 1013.11 1012.92
1003.39 1003.64 1004.34 1004.52 1004.57 1004.45 1004.06 1003.84 1004.14 1004.00 1004.07 1003.77 1003.86 1004.09 1004.31 1005.43 1005.83 1006.15 1006.76 1007.68 1008.49 1009.39 1010.15 1010.35 1010.34 1010.42 1010.84 1011.27 1011.58 1011.68 1010.96 1012.41 1013.02 1013.71 1013.68 1013.41 1013.34 1013.25 1013.23 1013.25 1013.44 1013.41 1013.18 1012.96
1003.86 1004.07 1004.51 1004.64 1004.69 1004.40 1004.07 1004.00 1004.01 1004.13 1004.14 1004.09 1004.07 1004.05 1004.62 1005.66 1005.85 1006.74 1007.19 1007.60 1008.16 1009.27 1009.73 1009.85 1009.90 1010.17 1010.69 1010.73 1011.39 1011.70 1011.56 1012.69 1013.09 1013.71 1013.76 1013.79 1013.64 1013.40 1013.18 1013.20 1013.01 1013.11 1013.05 1012.85
1003.64 1004.03 1004.44 1004.61 1004.94 1004.52 1004.24 1003.60 1003.76 1003.79 1003.89 1003.71 1003.57 1003.68 1004.50 1005.24 1005.85 1006.26 1006.88 1007.22 1007.73 1008.65 1009.03 1009.44 1009.46 1009.92 1010.39 1010.92 1011.45 1011.60 1011.97 1012.72 1013.33 1013.67 1013.69 1013.65 1013.75 1013.44 1012.93 1013.02 1012.94 1012.86 1012.91 1012.86
1003.60 1004.05 1004.72 1004.94 1004.97 1004.56 1003.82 1004.11 1003.82 1003.65 1003.67 1003.65 1003.75 1004.03 1004.71 1005.29 1005.75 1006.03 1006.55 1007.59 1008.38 1008.73 1009.17 1009.91 1010.25 1010.37 1010.68 1011.20 1011.30 1011.79 1012.35 1012.78 1013.28 1013.39 1013.46 1013.27 1012.92 1013.00 1012.86 1012.81 1012.94 1012.93 1012.91 1012.84
1003.68 1003.96 1004.88 1005.03 1004.78 1004.80 1004.16 1004.08 1003.79 1003.48 1003.15 1003.19 1003.51 1004.11 1005.02 1005.78 1006.25 1006.67 1007.38 1008.21 1009.33 1009.88 1010.34 1010.77 1010.99 1010.76 1010.96 1011.26 1011.85 1012.25 1012.60 1012.91 1013.04 1013.06 1013.05 1013.04 1012.90 1012.90 1013.02 1013.00 1013.01 1012.96 1012.88 1012.61
1004.22 1004.04 1003.97 1005.21 1004.43 1003.92 1003.12 1003.59 1003.85 1003.80 1003.28 1003.00 1003.85 1004.41 1005.36 1006.08 1006.54 1008.17 1008.92 1009.76 1010.96 1011.70 1012.70 1011.97 1011.21 1011.04 1011.25 1011.72 1012.03 1012.27 1012.64 1012.97 1013.09 1013.19 1013.24 1013.19 1013.28 1013.36 1013.30 1013.27 1013.12 1013.03 1012.86 1012.73
1004.82 1004.68 1004.60 1004.84 1004.40 1003.92 1003.74 1004.06 1004.31 1004.24 1003.96 1003.93 1004.53 1005.13 1005.84 1006.81 1008.05 1009.31 1010.24 1010.94 1011.94 1012.86 1013.08 1012.37 1012.24 1012.15 1012.08 1012.14 1012.52 1012.88 1013.30 1013.74 1013.90 1013.77 1013.83 1013.86 1013.95 1013.91 1013.82 1013.67 1013.42 1013.28 1012.96 1012.66
1005.43 1005.33 1005.41 1005.70 1005.13 1004.70 1004.41 1004.84 1004.51 1004.62 1004.36 1004.44 1005.16 1005.73 1006.53 1007.60 1008.67 1009.41 1010.22 1011.15 1011.66 1012.32 1013.99 1011.96 1012.85 1013.92 1013.45 1013.19 1013.43 1014.01 1014.50 1014.90 1014.76 1014.61 1014.57 1014.57 1014.67 1014.44 1014.08 1014.04 1013.73 1013.53 1013.04 1012.60
1006.48 1006.03 1005.72 1005.83 1004.95 1004.79 1004.96 1004.97 1004.90 1004.91 1004.86 1005.14 1005.76 1006.39 1006.72 1007.36 1008.04 1008.55 1009.01 1009.49 1009.98 1011.16 1013.26 1013.95 1013.80 1014.05 1014.34 1014.62 1014.91 1015.17 1015.70 1015.57 1015.41 1015.23 1015.08 1014.96 1014.83 1014.67 1014.62 1014.31 1013.89 1013.37 1013.16 1012.88
1006.58 1006.74 1006.26 1005.91 1004.97 1004.71 1004.75 1004.97 1005.06 1004.87 1004.82 1005.24 1005.86 1006.46 1007.19 1007.37 1008.09 1008.60 1009.53 1010.18 1010.74 1012.18 1013.58 1014.13 1014.32 1014.48 1015.12 1015.55 1015.83 1015.98 1016.02 1015.92 1015.64 1015.44 1015.36 1015.20 1015.11 1015.34 1014.85 1014.34 1014.17 1013.86 1013.51 1013.23
1006.51 1006.69 1006.11 1005.51 1004.93 1004.73 1004.49 1004.56 1004.63 1004.68 1004.85 1005.36 1006.16 1006.62 1007.35 1007.72 1008.29 1009.17 1009.97 1010.58 1011.45 1012.34 1013.28 1013.87 1014.46 1015.20 1015.97 1016.58 1016.62 1016.63 1016.46 1016.35 1016.20 1016.25 1015.94 1015.76 1015.51 1015.24 1014.49 1014.60 1014.72 1014.43 1014.21 1014.30
1005.92 1005.46 1005.17 1004.56 1004.62 1004.65 1004.35 1004.38 1004.49 1004.58 1004.80 1005.67 1005.85 1007.00 1007.65 1008.05 1008.81 1009.39 1010.42 1011.48 1012.41 1013.42 1014.14 1014.52 1015.42 1015.91 1016.47 1016.61 1016.71 1016.68 1016.70 1016.92 1016.75 1016.17 1016.13 1016.12 1015.76 1015.33 1015.20 1014.83 1014.47 1014.43 1014.40 1014.23
Wind_Speed
2 6 9 6 4 2 1 3 7 6 2 2 3 1 3 6 10 12 13 13 14 14 9 7 8 9 11 11 11 10 9 7 6 4 4 1 3 5 6 7 11 11 10 12
5 11 6 6 5 4 3 5 6 3 4 1 1 2 2 5 11 12 12 13 14 12 9 8 9 8 11 12 11 8 8 8 7 5 4 4 4 4 5 4 7 7 10 12
6 4 8 6 5 3 3 5 3 5 1 4 2 3 3 3 3 7 10 12 12 13 12 11 11 11 9 9 9 9 9 8 7 8 6 7 4 1 2 3 4 8 10 12
4 5 7 5 4 3 6 4 5 4 6 2 2 4 5 5 6 5 9 11 12 13 11 11 9 11 12 11 8 8 9 9 7 10 9 11 5 3 4 3 5 8 10 12
5 6 9 5 4 7 1 2 2 3 4 2 3 5 3 1 9 10 9 9 9 8 9 8 7 8 7 9 10 10 9 9 9 9 8 7 6 4 4 6 9 10 9 9
4 1 3 5 4 7 3 3 3 3 2 4 2 4 6 5 8 7 7 8 7 4 2 2 2 3 4 7 9 10 9 8 9 9 7 5 6 5 5 5 5 5 6 6
3 7 2 3 3 4 4 5 3 4 3 3 2 4 9 6 5 6 14 10 6 5 4 3 5 5 6 8 9 9 9 7 6 6 5 6 5 4 4 3 3 5 6 7
9 9 11 7 11 4 7 5 3 5 6 4 3 5 1 2 2 6 8 6 8 7 5 3 7 8 7 8 10 10 8 6 7 7 8 6 5 2 1 3 4 4 5 7
9 8 2 5 3 4 7 5 3 6 1 4 0 4 11 8 6 6 9 9 13 10 5 6 9 10 9 9 10 11 11 10 8 8 8 7 5 4 0 4 6 6 6 6
5 7 2 4 5 5 2 7 4 1 4 6 3 4 6 2 11 9 11 14 12 10 6 7 9 10 9 7 7 10 9 10 10 8 6 5 4 3 1 4 6 7 6 7
7 2 5 1 5 6 5 5 3 5 2 3 3 4 1 3 4 14 13 14 14 12 10 9 9 10 9 8 7 7 8 10 8 7 7 5 2 1 3 3 4 5 5 7
7 3 3 2 5 1 3 3 7 5 6 0 3 3 2 5 5 11 10 10 14 14 13 11 9 9 9 8 6 5 5 6 7 5 5 4 3 2 1 3 5 6 7 7
9 5 4 6 5 5 3 5 3 5 3 7 3 2 3 2 6 9 11 16 15 15 16 12 9 9 11 10 8 7 4 4 5 5 6 6 5 4 2 2 3 5 6 7
16 5 6 6 2 1 6 7 8 6 5 7 6 8 4 6 8 11 11 16 17 16 17 13 8 9 11 10 9 11 10 4 4 6 7 7 7 6 4 3 2 1 3 5
13 12 4 1 3 4 4 8 11 7 1 5 3 6 4 1 9 15 14 16 17 17 16 13 10 7 7 8 6 5 8 5 6 7 8 8 7 7 7 4 2 5 6 5
5 5 4 1 2 6 4 6 6 5 3 7 3 7 1 3 6 13 15 18 19 18 17 14 11 9 10 11 9 5 8 6 5 6 5 4 5 5 3 2 1 3 4 6
10 9 6 5 2 5 5 11 9 4 4 4 7 3 4 2 9 15 17 19 19 21 19 13 7 6 10 8 7 5 6 7 5 4 4 5 5 6 3 4 4 4 6 7
10 9 2 4 4 5 3 1 2 8 5 9 9 8 4 5 2 9 14 15 15 19 16 8 5 7 7 5 5 6 7 6 5 4 4 5 6 4 4 4 4 5 5 7
3 7 5 5 8 2 2 7 8 9 9 12 10 5 3 3 3 3 5 8 8 8 8 8 5 8 7 6 5 5 6 6 5 5 5 3 2 3 4 5 6 6 7 8
8 7 2 4 5 9 2 5 4 5 9 9 6 3 5 7 5 5 8 9 9 12 7 5 7 7 7 5 6 6 5 3 3 3 4 4 5 5 5 6 8 7 7 9
2 3 3 4 3 4 3 7 6 7 3 5 1 4 5 5 2 10 17 19 16 11 8 6 5 3 4 5 7 8 8 8 7 6 6 7 7 6 7 7 7 8 9 10
3 4 3 3 2 6 5 7 6 3 1 2 6 9 15 14 12 15 18 18 16 13 14 7 5 4 8 10 10 10 11 8 8 7 7 7 7 6 7 9 8 9 9 11
3 2 0 5 0 2 3 2 1 0 3 7 7 14 19 18 15 15 14 15 13 15 8 5 7 10 12 12 9 10 9 8 8 7 8 9 9 9 8 8 9 9 8 9
3 3 3 4 3 6 7 6 6 4 2 5 7 14 14 17 16 12 9 7 11 11 10 9 9 12 12 11 11 10 9 8 8 8 8 8 8 9 8 7 7 8 8 9
2 8 5 5 7 8 11 9 7 6 4 9 9 10 9 17 13 11 11 11 11 11 10 9 11 11 10 8 9 9 9 10 8 7 7 7 6 8 9 7 7 7 7 7
7 6 5 1 1 2 0 1 7 6 4 12 14 11 10 9 14 16 14 12 12 11 10 11 11 10 8 8 9 10 10 9 8 7 7 7 7 7 7 8 8 3 9 11
Wind_Direction
114 198 213 195 161 124 170 282 301 327 345 21 6 314 333 199 202 203 211 210 221 223 229 232 210 195 199 208 214 213 209 203 170 180 205 164 323 5 328 309 293 277 267 260
170 210 177 158 173 183 197 287 306 275 351 271 95 19 316 227 216 216 214 224 231 234 222 226 205 194 191 192 200 186 187 191 194 180 138 118 122 239 247 260 300 290 271 259
198 145 166 195 160 213 215 262 297 306 78 74 149 268 244 222 244 209 222 236 239 245 248 240 224 207 200 200 193 194 189 181 182 173 140 144 185 224 310 188 245 289 300 290
216 151 198 185 229 205 277 203 275 242 197 244 304 276 253 222 255 224 223 227 236 236 239 258 256 219 214 203 184 168 178 167 155 170 179 186 208 188 216 271 258 284 303 292
160 189 193 205 226 180 281 199 15 103 136 216 157 258 273 271 242 228 204 225 241 242 246 252 246 250 219 194 174 161 162 167 160 170 180 191 201 213 279 294 296 298 301 291
197 174 227 204 182 196 146 208 93 97 125 250 95 259 268 221 237 211 198 219 221 231 169 219 215 192 183 176 164 157 164 169 164 165 158 178 219 225 237 256 276 313 309 323
207 219 182 190 237 164 176 194 184 211 194 278 122 217 264 277 251 235 183 191 194 162 141 154 130 115 150 166 172 166 164 160 155 158 149 157 169 185 210 275 306 323 332 334
199 209 217 171 219 241 190 242 232 240 253 300 176 237 248 321 191 140 140 164 171 171 157 120 103 103 141 176 165 159 154 144 139 149 140 142 148 172 279 308 318 315 331 331
186 230 203 201 130 227 148 197 64 117 113 253 312 259 262 224 190 179 163 169 182 173 156 156 113 107 126 153 149 144 145 137 142 141 141 147 143 157 331 322 313 317 321 323
170 206 183 122 136 72 299 128 172 170 215 250 229 271 260 198 205 205 180 189 177 154 123 87 82 86 87 82 109 125 134 135 134 134 149 147 139 103 0 311 316 323 331 329
166 247 131 175 206 157 145 189 67 107 298 251 273 281 257 289 244 190 197 193 162 138 141 129 110 96 99 104 110 114 130 134 140 147 151 163 116 46 308 311 325 338 353 358
189 177 217 213 109 30 216 177 206 227 183 319 331 295 210 266 221 187 181 163 150 143 136 134 119 117 113 101 97 122 140 154 148 144 137 143 163 202 311 349 6 4 9 17
170 217 179 155 131 170 213 176 169 113 144 183 217 288 161 71 151 170 147 150 154 143 139 131 117 135 138 139 132 131 141 155 177 178 173 170 171 173 136 41 15 5 4 4
167 165 219 186 147 97 193 176 179 235 192 152 231 299 120 148 166 156 154 168 159 153 151 153 149 149 158 158 163 148 132 130 175 210 201 184 172 169 175 203 225 310 357 351
185 211 198 193 280 234 266 187 176 215 185 241 75 222 7 326 201 180 162 161 162 159 163 166 176 207 163 137 117 80 94 156 170 212 212 200 183 176 193 188 315 331 334 344
196 147 157 122 347 221 238 181 187 221 197 262 258 278 139 133 162 176 179 172 172 162 168 178 201 196 186 156 152 113 111 184 167 216 238 255 243 225 226 254 308 305 317 327
169 151 172 217 67 163 215 206 198 191 202 225 225 247 341 189 185 193 191 192 175 166 175 187 191 158 163 159 136 88 135 149 178 207 236 255 280 269 273 274 268 304 321 325
147 143 109 122 155 192 53 290 213 223 234 222 263 270 298 287 225 203 195 194 179 175 174 153 142 152 146 148 125 137 152 162 187 198 242 259 251 272 291 286 306 312 315 322
174 131 112 166 198 341 225 201 190 190 233 213 226 221 219 168 195 198 225 195 186 155 114 131 144 121 124 131 146 149 157 173 185 219 249 272 354 349 320 311 314 310 305 313
81 86 146 167 181 214 206 150 149 135 252 203 210 270 187 168 226 74 68 78 82 57 10 50 73 99 117 138 152 146 147 157 45 35 26 33 14 347 336 334 326 319 307 297
77 56 127 151 218 271 203 151 158 202 316 87 28 37 139 172 1 111 92 81 75 46 358 348 345 65 66 128 129 110 88 54 26 32 43 38 24 3 4 344 342 330 318 309
169 164 154 117 175 254 147 146 215 22 289 22 75 111 117 124 127 122 111 112 89 58 279 51 72 48 60 79 91 85 63 35 31 30 28 21 8 356 352 342 335 329 323 308
198 271 332 234 280 84 207 321 28 64 308 61 115 138 137 144 148 156 152 146 140 142 208 136 123 92 67 62 66 74 46 30 20 16 11 3 357 358 345 338 335 325 325 315
202 170 234 251 174 247 235 236 237 248 294 69 139 165 165 159 165 147 118 119 99 124 123 133 119 86 74 60 57 54 34 19 18 15 9 3 353 343 345 339 338 330 330 327
61 161 181 252 266 271 260 238 232 214 167 117 144 176 170 157 150 143 141 134 117 114 114 111 95 86 78 69 56 42 34 21 14 5 5 2 350 346 347 345 338 332 333 331
190 171 194 165 194 275 307 251 197 196 170 149 149 170 185 162 149 140 132 126 122 119 116 98 96 91 76 62 50 38 31 19 6 4 4 11 348 352 343 334 332 271 254 273